Presure
152 95 151 229 223 213 232 235 255 270 333 325 298 297 262 326 198 313 351 348 328 336 319 326 312 281 280 287 271 240 222 205 223 186 224 218 203 199 193 187 182 172 166 172 170 156 163
103 165 161 237 242 223 232 232 257 284 305 267 322 363 320 498 497 354 308 295 344 340 329 331 326 304 279 267 281 262 239 199 208 224 191 198 222 218 211 195 192 181 162 168 168 180 157
130 131 233 247 252 224 239 246 263 295 332 304 311 331 570 524 538 509 484 312 296 328 312 305 311 303 300 263 271 260 266 237 213 210 221 195 204 216 216 210 201 197 188 181 186 175 189
125 86 182 253 207 228 232 250 270 315 283 312 352 556 542 534 528 473 428 588 307 332 332 316 316 312 293 291 258 259 270 266 237 208 208 207 221 210 214 205 204 201 196 188 187 186 185
141 129 249 255 199 200 241 259 274 328 300 365 503 548 519 491 476 462 454 448 383 298 318 314 308 322 299 296 259 262 276 260 271 238 218 213 194 216 217 215 214 210 212 205 214 202 193
150 191 252 252 198 225 242 264 329 327 308 364 489 538 505 477 463 445 439 426 435 307 297 316 298 305 300 291 276 263 255 254 261 268 244 221 215 189 214 209 208 215 209 213 206 206 207
172 241 258 210 196 226 243 267 339 335 337 364 467 456 441 428 444 444 430 427 418 313 297 294 304 296 303 299 273 275 258 267 246 259 262 241 231 210 207 194 210 212 208 205 208 196 211
172 155 151 193 203 227 245 274 337 304 366 390 455 433 418 417 406 435 446 414 427 419 301 285 297 295 292 288 287 224 266 268 274 243 247 245 251 241 214 212 203 198 211 211 203 208 203
135 241 211 193 202 228 245 296 287 307 357 451 449 435 423 407 407 417 429 455 424 498 301 287 293 284 282 299 288 266 256 249 252 269 242 240 240 229 246 222 211 211 200 201 204 206 210
141 237 210 192 203 233 253 321 285 333 352 449 437 442 427 410 409 414 434 467 578 467 293 286 287 275 286 298 280 293 260 251 257 262 266 244 240 251 243 236 247 220 209 210 207 205 199
144 156 203 191 204 232 268 312 287 334 348 454 444 444 433 425 425 435 441 505 581 445 288 280 268 283 289 294 277 268 279 281 249 248 261 257 242 240 241 250 248 248 236 236 215 208 208
92 251 200 193 210 233 269 324 309 345 445 483 460 458 434 431 444 437 471 561 478 412 287 280 164 267 289 274 291 268 265 284 259 248 249 252 251 257 241 235 228 237 241 243 244 247 204
118 149 186 207 212 234 284 323 341 358 535 474 460 457 443 456 444 467 488 479 420 334 286 271 283 282 278 256 298 261 264 264 267 245 245 245 241 248 241 240 241 236 244 253 227 237 235
139 205 195 203 212 239 274 332 339 355 504 485 484 471 460 471 484 451 466 378 371 303 282 277 283 272 270 257 250 298 265 257 271 253 243 244 241 242 243 241 231 243 238 227 245 242 240
138 135 156 209 211 262 301 325 338 363 517 520 487 486 522 505 440 401 356 353 328 289 279 282 282 267 264 267 244 247 301 264 259 274 267 246 247 251 251 256 250 244 239 237 239 239 236
136 158 176 204 237 271 287 321 307 359 364 525 449 394 427 409 378 367 345 360 295 273 272 276 258 273 253 257 247 274 287 284 256 261 256 271 274 254 251 263 262 247 237 228 229 232 237
140 203 194 212 242 299 284 315 302 348 355 419 412 388 373 385 362 396 355 323 280 267 270 272 256 256 248 247 264 261 263 275 291 268 263 255 256 255 250 250 250 255 243 242 242 244 249
240 200 190 213 276 297 296 312 295 348 346 340 396 377 393 379 337 303 316 286 269 267 261 262 259 258 250 247 234 233 238 236 303 299 301 302 295 262 257 250 249 253 257 261 269 247 251
159 197 184 215 283 276 287 310 284 312 324 324 341 403 363 353 340 334 276 271 255 262 264 241 246 243 233 233 235 249 288 283 280 281 281 286 290 290 291 292 297 299 295 293 289 276 263
203 195 158 222 282 274 285 307 277 306 321 333 322 384 353 361 363 331 260 271 255 254 243 249 237 237 235 233 277 270 260 260 257 261 261 260 258 258 257 257 258 256 251 243 236 226 244
202 191 193 268 96 286 290 298 272 297 319 311 318 375 356 363 340 288 270 263 260 240 236 232 227 229 234 280 267 260 254 251 249 249 246 244 239 235 234 234 231 225 231 258 249 243 238
132 194 213 240 270 272 288 296 277 290 313 307 329 332 378 331 356 286 258 248 244 236 236 229 229 231 275 260 257 248 247 241 237 238 232 228 225 224 223 267 261 252 237 227 219 233 208
212 207 230 280 308 278 284 269 282 284 300 315 328 300 377 365 326 281 261 253 239 243 230 230 231 263 258 259 246 240 240 231 227 224 220 282 270 253 243 237 229 214 207 212 228 242 246
182 231 284 276 308 283 287 269 291 285 297 310 322 302 345 380 315 273 261 255 248 238 232 231 241 255 250 244 243 232 223 229 292 276 249 238 228 216 210 207 211 219 245 244 242 217 236
180 282 279 279 307 295 281 270 294 290 298 317 312 307 307 377 294 279 265 258 250 245 232 231 266 254 243 239 231 223 217 221 212 216 214 209 208 217 216 220 221 243 240 238 200 228 229
138 285 273 284 311 291 293 277 292 290 291 303 325 309 301 377 298 286 270 263 243 233 231 233 256 246 239 233 232 222 221 215 212 213 215 217 217 224 222 217 234 234 250 237 231 225 229
282 285 278 304 272 289 293 268 312 282 304 304 321 304 391 375 350 285 278 266 255 242 234 262 255 244 237 229 229 225 220 216 214 214 214 221 233 219 240 229 225 243 242 232 223 224 221
293 287 279 305 298 286 289 312 316 300 318 330 326 388 370 361 333 294 278 266 252 249 237 230 255 244 238 235 227 227 221 220 214 214 221 232 220 211 256 251 244 244 244 235 208 222 211
298 288 292 300 305 274 286 296 319 309 336 343 460 390 361 339 334 328 276 280 260 255 244 233 237 249 239 233 232 226 225 222 214 220 216 230 206 232 197 249 242 241 243 220 221 223 223
Wind_Speed
78 38 77 100 97 92 98 99 105 107 89 91 92 84 53 64 41 54 50 56 60 62 62 67 90 91 91 91 100 105 102 99 99 89 99 104 107 110 110 106 102 91 87 93 94 81 82
46 84 85 104 103 95 99 101 108 107 103 89 97 82 80 63 59 44 60 56 62 63 66 65 80 92 94 90 92 102 106 95 99 98 93 92 97 103 108 108 104 103 83 91 92 98 86
74 77 106 106 104 97 103 108 112 110 99 101 97 90 32 40 39 41 58 66 59 66 67 69 74 91 87 95 90 97 101 106 101 99 99 95 91 95 98 104 106 103 104 102 104 100 99
72 37 80 107 95 99 103 111 114 106 109 104 95 31 27 26 23 30 35 26 68 69 68 71 70 73 91 98 94 95 92 100 106 100 101 98 96 97 97 99 100 102 104 101 106 100 97
76 71 110 109 95 91 109 115 117 105 108 97 50 26 23 21 21 24 31 45 67 66 70 74 72 68 82 89 95 95 89 96 95 105 102 99 91 94 96 93 95 96 92 98 95 103 101
82 90 111 111 96 104 112 118 107 108 109 95 42 21 12 11 14 17 24 41 49 71 68 73 69 68 74 84 94 97 93 91 91 92 102 102 98 86 93 93 92 90 93 89 92 92 92
95 112 114 96 96 106 114 120 105 108 110 102 56 38 28 18 17 11 18 31 46 75 70 66 64 64 70 73 88 87 88 85 93 86 88 98 100 93 93 91 93 91 90 88 87 88 82
96 83 72 95 99 109 116 121 105 114 105 98 49 43 40 27 15 17 11 29 42 62 72 60 66 66 67 73 88 70 83 82 85 93 89 89 89 96 96 95 91 87 87 90 90 88 86
80 113 100 96 99 110 116 115 117 113 104 69 46 40 30 27 25 16 11 11 40 50 71 63 63 63 67 66 71 86 86 85 85 87 91 90 88 95 92 95 92 91 88 89 87 87 87
84 114 100 97 100 113 118 106 116 107 102 61 50 36 29 25 19 21 17 10 9 59 67 62 60 61 61 61 68 63 87 84 81 78 83 87 86 81 84 90 87 93 91 92 91 88 85
87 85 98 96 100 114 119 106 112 105 100 52 42 36 25 25 19 13 8 8 20 64 65 58 53 61 59 50 63 60 56 82 81 78 71 71 83 83 83 75 78 81 89 93 93 86 88
45 113 98 97 103 115 118 101 104 101 69 35 34 28 24 21 7 2 4 22 49 67 63 55 16 46 49 46 56 56 57 54 84 78 71 70 74 72 79 80 83 80 79 80 82 86 85
65 84 90 101 103 115 113 98 97 100 39 38 36 21 19 7 2 9 33 47 52 64 56 45 42 46 44 44 42 48 52 48 67 77 72 73 72 72 77 75 76 79 72 67 79 80 82
80 97 95 100 102 116 113 95 93 95 43 36 22 12 10 7 16 44 55 58 48 63 51 47 46 43 40 41 40 47 52 48 46 80 73 73 71 70 68 71 75 71 73 74 64 68 69
79 79 72 103 101 117 101 93 91 90 37 24 22 18 11 24 53 60 58 62 63 54 47 43 43 37 33 30 39 33 49 50 47 46 74 70 68 70 68 66 67 71 68 68 66 64 66
76 86 85 100 117 112 101 90 90 87 86 26 40 27 49 48 51 56 55 52 55 45 43 43 35 30 30 29 30 23 29 49 45 46 48 47 52 64 63 57 62 68 70 68 66 66 66
80 97 91 104 117 95 100 91 87 88 87 40 37 35 36 41 45 43 49 52 46 41 35 37 35 33 30 29 25 26 24 26 38 47 47 47 49 52 54 56 59 59 70 67 63 61 61
104 95 90 106 104 91 91 91 90 87 81 81 27 25 33 46 37 15 51 43 38 36 36 33 31 30 29 26 26 25 24 26 26 29 30 33 42 54 55 56 57 60 61 64 58 54 59
85 96 88 105 94 95 87 84 90 81 77 71 69 25 21 30 33 35 37 37 34 32 31 32 28 27 28 26 24 22 19 20 23 25 29 26 24 25 27 29 30 32 34 36 33 39 39
94 93 75 107 86 91 80 78 84 80 75 67 65 14 18 14 25 35 23 38 34 33 33 28 30 27 25 25 16 18 21 24 24 23 23 23 24 26 27 28 30 30 30 33 31 34 35
94 91 93 89 36 77 73 74 78 72 71 62 54 22 24 7 6 38 30 30 31 32 33 33 32 26 21 18 22 24 28 26 25 26 26 24 25 25 26 28 27 26 25 25 25 28 28
68 89 101 71 78 77 68 71 70 66 67 60 51 47 8 16 11 40 27 25 28 27 27 27 23 20 20 23 25 29 28 26 23 21 21 24 24 25 25 26 24 22 22 22 22 26 30
97 94 75 73 60 70 61 67 63 65 60 57 47 35 19 6 25 35 28 30 27 28 25 23 20 22 23 26 28 26 24 23 23 23 23 26 28 29 21 18 16 17 19 21 22 19 15
83 95 74 70 58 63 56 61 60 59 60 56 44 32 27 10 33 27 28 29 27 26 25 23 21 28 25 26 25 26 25 23 25 26 26 22 17 13 13 15 18 23 18 18 18 26 14
80 74 70 65 54 56 54 58 55 56 58 55 48 34 23 16 33 35 32 32 28 27 23 21 31 30 28 28 28 26 24 24 21 19 17 16 14 15 16 19 21 19 19 20 18 18 16
59 71 70 59 50 53 52 53 51 51 53 50 50 38 25 19 37 40 39 37 26 24 23 23 32 30 29 31 30 27 25 24 21 19 18 17 16 17 18 17 17 18 21 23 20 21 17
71 68 68 48 56 50 50 52 52 49 52 50 47 44 28 22 25 45 48 42 36 30 24 32 36 33 31 31 31 30 27 26 23 21 19 18 19 18 12 18 20 21 20 24 21 20 17
63 64 65 47 43 50 49 56 51 49 50 50 47 32 31 27 35 52 46 45 37 37 31 25 38 36 35 35 31 31 28 26 24 22 21 19 18 14 20 21 20 17 19 25 20 19 9
57 59 55 46 44 48 50 52 55 51 53 50 41 37 37 31 32 36 48 53 46 42 36 32 31 38 37 34 34 30 29 28 25 24 22 21 16 15 16 21 19 18 20 15 16 17 16
Wind_Direction
344 345 343 345 344 343 344 343 345 343 328 329 334 331 300 302 302 278 254 245 242 231 227 223 218 221 221 221 218 220 221 223 224 228 226 228 231 232 232 233 232 233 234 238 241 239 243
332 348 347 343 343 345 344 343 344 340 336 339 328 317 322 283 274 259 257 254 235 228 225 223 218 218 218 219 221 219 219 224 223 224 226 229 229 231 234 235 234 233 233 237 239 243 236
354 354 343 342 344 344 345 345 344 339 329 335 332 325 297 287 282 256 244 239 240 228 223 221 220 215 216 218 220 219 219 220 222 223 225 227 228 228 230 233 236 235 236 238 240 240 242
356 346 343 343 344 346 345 345 343 334 340 335 327 310 306 302 296 258 243 243 229 222 218 219 218 213 213 215 217 220 219 220 220 222 224 226 226 229 230 234 236 237 238 240 241 242 244
346 356 343 344 344 346 346 345 343 335 338 333 328 312 316 310 293 268 236 226 216 223 217 216 216 214 213 213 217 220 220 219 220 221 225 225 228 227 229 231 234 236 237 239 239 243 245
350 344 344 344 344 347 347 345 336 335 338 336 346 334 342 324 309 269 235 221 213 214 217 212 214 211 207 212 214 217 218 220 219 220 221 225 227 230 230 232 234 232 235 237 241 243 246
345 344 344 346 345 348 347 345 338 337 338 340 350 357 358 359 348 319 237 221 210 207 213 215 213 210 208 210 213 212 217 218 220 219 222 224 226 228 230 232 234 235 238 239 239 242 241
343 355 344 344 347 348 348 344 341 342 342 343 343 345 343 344 334 324 288 211 206 199 208 208 206 207 209 208 210 216 216 218 218 222 222 223 225 227 229 231 233 234 237 238 241 242 243
352 343 345 345 347 349 348 343 344 342 342 345 342 334 330 331 328 320 286 268 194 182 202 203 203 205 207 206 209 212 211 218 219 218 223 223 224 227 228 231 234 236 236 238 241 242 243
347 343 345 345 347 348 347 342 344 344 343 343 342 333 323 325 321 301 294 274 222 174 197 198 199 205 204 204 207 208 214 218 221 220 220 224 226 229 231 231 232 236 239 241 240 242 245
343 349 345 344 347 348 345 342 345 345 343 337 337 333 332 327 310 302 287 284 161 172 191 192 195 200 202 202 204 210 211 214 222 222 222 219 224 227 230 235 235 234 235 237 242 243 244
342 338 344 344 348 348 345 343 345 346 344 333 336 327 335 324 334 37 172 145 154 170 186 188 226 197 199 198 202 209 207 209 215 222 222 223 225 226 229 233 236 238 236 237 240 243 245
346 348 345 344 347 346 342 345 349 350 346 349 345 344 331 325 325 139 133 133 151 170 178 181 184 190 192 192 199 207 208 210 211 219 222 223 224 223 228 231 234 238 240 242 242 242 243
344 342 342 343 347 345 342 345 351 353 353 352 358 20 11 41 121 123 126 135 152 173 171 171 182 182 185 188 198 202 210 210 211 216 222 225 226 227 230 232 236 237 239 240 242 245 246
345 348 349 343 346 340 342 346 353 356 358 23 37 24 50 107 122 129 136 146 160 164 163 170 173 173 174 184 197 202 207 209 210 213 221 229 229 230 233 235 237 238 239 241 243 246 247
347 344 343 342 340 338 340 346 349 360 6 51 85 69 84 112 118 141 149 146 155 155 160 163 157 164 167 175 189 190 191 209 213 218 217 216 220 228 233 232 237 237 240 242 245 248 250
343 339 339 342 337 336 338 344 349 3 9 54 82 91 103 118 126 137 150 146 149 151 152 156 157 160 169 175 181 178 180 194 210 221 225 224 224 226 230 232 234 235 241 245 248 251 253
328 337 339 341 334 336 340 344 347 4 10 15 56 45 99 118 131 83 142 146 140 144 152 157 155 159 163 165 178 188 189 200 194 197 201 209 223 230 234 235 236 238 242 246 251 250 254
336 335 337 339 334 334 339 346 344 356 6 10 16 86 89 127 139 136 140 143 142 147 151 142 142 148 152 159 172 186 179 176 176 186 193 197 198 199 202 210 216 223 229 234 233 240 247
332 334 336 335 333 332 339 345 343 354 1 8 12 67 46 99 147 143 138 144 144 145 139 143 148 150 159 169 169 166 171 173 177 177 177 178 177 181 189 198 206 211 217 225 236 243 245
331 334 335 331 341 331 339 343 341 350 354 1 8 10 3 76 112 142 151 150 145 145 148 150 160 160 163 178 164 169 174 176 177 175 174 172 179 189 197 205 211 220 227 215 220 235 246
340 333 332 331 330 329 338 343 339 346 351 355 3 7 329 67 88 151 157 153 148 153 154 159 160 162 172 167 169 171 173 172 177 178 178 187 193 204 209 190 194 196 212 228 246 245 264
326 330 332 328 326 328 336 335 336 341 346 347 355 2 336 319 139 159 165 163 166 160 165 164 165 173 172 171 170 173 168 170 177 181 188 182 174 185 197 201 208 234 243 248 245 235 221
326 325 321 326 322 325 334 333 335 338 338 339 343 351 352 274 159 183 185 183 176 174 174 171 175 176 174 172 171 166 171 178 189 176 167 177 190 201 212 229 240 242 216 212 210 254 231
324 317 320 323 318 321 328 329 332 334 333 335 330 333 341 277 187 192 191 191 189 184 185 182 180 177 172 171 172 175 181 181 192 191 195 206 216 223 229 233 239 215 219 211 236 226 235
337 314 318 319 315 318 326 327 327 329 326 326 324 318 320 243 197 196 200 198 204 203 204 189 186 181 178 178 176 183 185 195 201 202 208 216 223 228 231 226 232 238 209 204 215 225 240
311 312 314 315 321 317 324 323 327 325 320 317 316 307 249 227 213 203 200 203 204 207 210 193 189 186 189 189 187 186 191 200 209 212 217 223 219 230 232 232 223 214 207 204 218 231 255
307 308 312 312 319 316 322 323 328 322 316 314 306 237 230 219 201 203 211 210 214 207 211 214 193 194 192 193 197 194 201 204 214 221 227 227 228 233 220 214 219 217 211 207 224 240 273
305 305 307 312 316 316 319 323 327 322 320 313 208 213 206 207 209 204 211 206 212 211 210 216 209 199 200 203 202 204 205 208 219 225 231 227 226 236 217 209 217 216 214 221 232 247 261